World > North America > United States > Ohio > Plain City

Hourly Plain City, OH Regional Weather

Feedback E-mail the Weather

Quick WX

Plain City, OH Weather Maps

°F °C°F °C
Plain City Weather Map
UTC Time: 8/10/2022, 10:53
Your Time:

Plain City, OH Regional Weather

Expires:202208101100;;785648
ASUS41 KCLE 101010
RWRCLE
OHIO REGIONAL WEATHER ROUNDUP
NATIONAL WEATHER SERVICE CLEVELAND, OH
600 AM EDT WED AUG 10 2022

NOTE: "FAIR" INDICATES FEW OR NO CLOUDS BELOW 12,000 FEET WITH NO
SIGNIFICANT WEATHER AND/OR OBSTRUCTIONS TO VISIBILITY.


OHZ036-037-039>041-045>050-054>059-063>069-073>076-082>088-101100-
  CENTRAL AND SOUTHEAST OHIO
  
CITY           SKY/WX    TMP DP  RH WIND       PRES   REMARKS
COLUMBUS       CLOUDY    72  68  87 E3        30.09S                  
OSU AIRPORT    CLOUDY    71  68  90 NW5       30.10S                  
BOLTON FIELD   CLOUDY    71  67  88 E5        30.10F                  
RICKENBACK AFB CLOUDY    70  69  94 E5        30.09S                  
NEWARK         CLOUDY    73  66  78 CALM      30.10S                  
MARION         CLOUDY    69  65  86 N3        30.12R                  
LANCASTER      MOCLDY    69  68  96 CALM      30.11S                  
ZANESVILLE     MOCLDY    70  67  90 NE3       30.10S                  
NEW PHILLY     NOT AVBL                                               
$$
  

SKY/WX - Weather  TMP - Temperature  DP - Dew Point  RH - Humidity
WIND - Wind Direction/Speed PRES - Barometric Pressure VSB - Visibility
WCI - Wind Chill Index E13G22 Wind - East Wind 13 mph/Gusts of 22 mph

Trending Headlines

Plain City Radar Loop



Plain City Quick Facts


National Two Day Weather Forecast


E-mail the Plain City Weather Forecast

Voice your opinion or tell us about page issues...